Date String (YYYY-MM-DD hh:mm:ss) UTC,Instrument flags,Ambient pressure (hPa),Sample flow (lpm),Bypass flow (lpm),Sample temperature (°C),Ambient temperature (°C),ASC tube jacket temperature (°C),LED temperature (°C),Box temperature (°C),Sample RH (%),Span deviation,Mass concentration (μg/m³),Mass concentration (μg/m³),Mass concentration (μg/m³)
DateTimeUTC,F1_M11,P_M11,Q1_M11,Q2_M11,T1_M11,T2_M11,T3_M11,T4_M11,T5_M11,U1_M11,ZSPAN_M11,X0_M11,X2_M11,X1_M11
2022-12-31 05:00:00,,0814.4,5.03,0.00,22.0,20.6,00.0,30.8,23.6,11.1,0000.0,0001.57,0001.01,0000.84
2022-12-31 05:01:00,,0814.5,4.99,0.00,21.9,20.6,00.0,30.8,23.6,11.1,0000.0,0001.35,0000.86,0000.71
2022-12-31 05:02:00,,0814.2,4.99,0.00,21.9,20.6,00.0,30.8,23.6,11.2,0000.0,0001.18,0000.77,0000.64
2022-12-31 05:03:00,,0814.4,4.97,0.00,21.9,20.5,00.0,30.8,23.6,11.2,0000.0,0001.11,0000.66,0000.53
2022-12-31 05:04:00,,0814.4,5.00,0.00,21.9,20.5,00.0,30.8,23.6,11.1,0000.0,0001.04,0000.57,0000.41
2022-12-31 05:05:00,,0814.3,5.01,0.00,21.9,20.5,00.0,30.8,23.6,11.0,0000.0,0001.24,0000.52,0000.36
2022-12-31 05:06:00,,0814.4,5.03,0.00,21.9,20.5,00.0,30.8,23.6,10.9,0000.0,0001.51,0000.50,0000.35
2022-12-31 05:07:00,,0814.4,5.01,0.00,21.9,20.6,00.0,30.8,23.6,10.9,0000.0,0001.54,0000.50,0000.35
2022-12-31 05:08:00,,0814.4,4.97,0.00,21.9,20.6,00.0,30.8,23.6,11.3,0000.0,0001.73,0000.66,0000.47
2022-12-31 05:09:00,,0814.4,4.97,0.00,21.9,20.7,00.0,30.8,23.6,11.2,0000.0,0002.19,0001.08,0000.88
2022-12-31 05:10:00,,0814.7,5.01,0.00,22.0,21.3,00.0,30.7,23.9,11.1,0000.0,0002.93,0001.61,0001.35
2022-12-31 05:11:00,,0814.4,5.05,0.00,22.1,22.3,00.0,30.7,24.1,11.3,0000.0,0004.57,0002.55,0002.19
2022-12-31 05:12:00,,0814.3,4.98,0.00,22.2,22.7,00.0,30.8,24.3,11.3,0000.0,0006.24,0003.41,0003.15
2022-12-31 05:13:00,,0814.5,4.97,0.00,22.2,22.2,00.0,30.8,24.2,11.3,0000.0,0007.45,0004.06,0003.82
2022-12-31 05:14:00,,0814.4,5.03,0.00,22.2,21.8,00.0,30.9,24.1,11.3,0000.0,0008.25,0004.75,0004.48
2022-12-31 05:15:00,,0814.2,5.01,0.00,22.2,21.4,00.0,30.9,24.0,11.3,0000.0,0009.18,0005.45,0005.11
2022-12-31 05:16:00,,0814.2,4.99,0.00,22.2,21.1,00.0,30.9,23.9,11.3,0000.0,0010.07,0006.17,0005.77
2022-12-31 05:17:00,,0814.3,5.01,0.00,22.1,20.8,00.0,30.9,23.8,11.3,0000.0,0010.69,0006.83,0006.40
2022-12-31 05:18:00,,0814.1,4.98,0.00,22.1,20.5,00.0,30.9,23.7,11.3,0000.0,0011.37,0007.42,0006.96
2022-12-31 05:19:00,,0814.1,4.97,0.00,22.1,20.5,00.0,30.9,23.7,11.3,0000.0,0012.41,0007.97,0007.48
2022-12-31 05:20:00,,0814.1,5.00,0.00,22.0,20.5,00.0,30.9,23.7,11.4,0000.0,0013.58,0008.39,0007.87
2022-12-31 05:21:00,,0814.0,5.03,0.00,22.0,20.5,00.0,30.9,23.7,11.4,0000.0,0013.75,0008.59,0008.12
2022-12-31 05:22:00,,0813.9,5.04,0.00,22.0,20.6,00.0,30.9,23.7,11.4,0000.0,0013.74,0008.64,0008.17
2022-12-31 05:23:00,,0813.8,4.97,0.00,22.0,20.6,00.0,30.9,23.7,11.4,0000.0,0013.85,0008.68,0008.19
2022-12-31 05:24:00,,0813.9,4.99,0.00,22.0,20.6,00.0,30.9,23.7,11.5,0000.0,0014.06,0008.59,0008.09
2022-12-31 05:25:00,,0813.9,5.01,0.00,22.0,20.6,00.0,30.9,23.8,11.6,0000.0,0014.43,0008.46,0007.94
2022-12-31 05:26:00,,0813.9,5.02,0.00,22.0,20.7,00.0,30.9,23.8,11.7,0001.3,0014.27,0008.32,0007.80
2022-12-31 05:27:00,,0813.9,4.99,0.00,22.0,20.7,00.0,30.9,23.8,11.7,0000.8,0013.91,0008.15,0007.64
2022-12-31 05:28:00,,0814.3,4.97,0.00,22.0,20.7,00.0,30.9,23.8,11.7,0000.0,0014.12,0008.02,0007.47
2022-12-31 05:29:00,,0813.9,5.02,0.00,22.0,20.4,00.0,30.9,23.6,11.6,0000.0,0014.21,0008.01,0007.45
2022-12-31 05:30:00,,0813.9,5.02,0.00,21.9,20.1,00.0,30.9,23.4,11.6,0000.0,0014.09,0008.04,0007.49
2022-12-31 05:31:00,,0813.9,5.01,0.00,21.8,19.9,00.0,30.9,23.3,11.6,0000.0,0013.33,0008.08,0007.51
2022-12-31 05:32:00,,0814.3,5.00,0.00,21.7,19.7,00.0,30.8,23.2,11.7,0000.0,0013.83,0008.39,0007.76
2022-12-31 05:33:00,,0814.2,4.95,0.00,21.7,19.8,00.0,30.8,23.2,11.7,0000.0,0014.11,0008.70,0008.05
2022-12-31 05:34:00,,0814.1,5.03,0.00,21.7,19.8,00.0,30.8,23.2,11.7,0001.4,0014.10,0008.87,0008.21
2022-12-31 05:35:00,,0813.5,5.03,0.00,21.7,19.8,00.0,30.7,23.2,11.7,0003.1,0014.24,0009.11,0008.42
2022-12-31 05:36:00,,0813.5,4.99,0.00,21.7,20.6,00.0,30.7,23.4,11.7,0003.9,0014.06,0009.41,0008.74
2022-12-31 05:37:00,,0813.5,4.97,0.00,21.8,21.8,00.0,30.6,23.7,11.7,0003.9,0014.60,0009.69,0009.02
2022-12-31 05:38:00,,0813.5,5.01,0.00,22.0,22.6,00.0,30.7,24.0,11.4,0004.2,0014.65,0009.71,0009.05
2022-12-31 05:39:00,,0813.6,5.04,0.00,22.0,22.2,00.0,30.7,24.0,11.1,0004.3,0014.25,0009.47,0008.85
2022-12-31 05:40:00,,0813.7,5.00,0.00,22.0,21.5,00.0,30.8,23.8,11.4,0004.4,0014.25,0009.53,0008.90
2022-12-31 05:41:00,,0814.2,4.97,0.00,21.9,20.9,00.0,30.8,23.6,11.8,0004.5,0014.44,0009.69,0009.05
2022-12-31 05:42:00,,0813.6,4.96,0.00,21.9,20.5,00.0,30.8,23.4,11.8,0004.3,0014.61,0009.75,0009.11
2022-12-31 05:43:00,,0813.5,4.99,0.00,21.8,20.4,00.0,30.8,23.4,11.8,0003.9,0014.39,0009.64,0009.01
2022-12-31 05:44:00,,0813.6,5.00,0.00,21.8,20.2,00.0,30.8,23.4,11.9,0003.8,0014.17,0009.57,0008.96
2022-12-31 05:45:00,,0813.5,5.00,0.00,21.8,20.2,00.0,30.7,23.3,12.0,0003.7,0014.03,0009.47,0008.89
2022-12-31 05:46:00,,0813.5,5.00,0.00,21.7,20.2,00.0,30.7,23.4,12.0,0004.0,0013.88,0009.40,0008.86
2022-12-31 05:47:00,,0813.6,5.03,0.00,21.7,20.2,00.0,30.7,23.4,11.9,0003.9,0014.11,0009.38,0008.82
2022-12-31 05:48:00,,0813.6,5.00,0.00,21.7,20.3,00.0,30.7,23.4,11.8,0004.2,0014.23,0009.39,0008.82
2022-12-31 05:49:00,,0813.7,4.98,0.00,21.7,20.3,00.0,30.7,23.4,11.8,0003.7,0014.88,0009.63,0009.06
2022-12-31 05:50:00,,0813.8,4.98,0.00,21.7,20.3,00.0,30.7,23.4,11.8,0003.1,0015.55,0010.23,0009.59
2022-12-31 05:51:00,,0813.5,4.98,0.00,21.7,20.2,00.0,30.7,23.3,11.9,0002.9,0016.09,0010.49,0009.84
2022-12-31 05:52:00,,0813.3,5.04,0.00,21.7,20.1,00.0,30.7,23.2,12.0,0003.0,0016.79,0010.50,0009.84
2022-12-31 05:53:00,,0813.2,5.00,0.00,21.6,20.0,00.0,30.7,23.1,12.0,0003.1,0017.35,0010.56,0009.90
2022-12-31 05:54:00,,0813.2,4.99,0.00,21.6,19.9,00.0,30.6,23.1,12.0,0002.8,0017.82,0010.74,0010.06
2022-12-31 05:55:00,,0813.3,5.01,0.00,21.6,19.9,00.0,30.6,23.1,12.0,0002.7,0018.22,0010.91,0010.17
2022-12-31 05:56:00,,0813.3,5.02,0.00,21.6,20.6,00.0,30.6,23.3,11.9,0001.9,0018.56,0011.10,0010.32
2022-12-31 05:57:00,,0813.5,5.01,0.00,21.7,21.7,00.0,30.5,23.6,11.8,0001.8,0018.99,0011.30,0010.46
2022-12-31 05:58:00,,0813.3,4.95,0.00,21.9,22.6,00.0,30.6,23.9,11.7,0002.4,0018.97,0011.42,0010.56
2022-12-31 05:59:00,,0813.2,5.01,0.00,22.0,22.4,00.0,30.6,24.0,11.7,0002.7,0018.71,0011.43,0010.54
